CW5619 Weather Reports


time (UTC)temp
C
wind
direction
speed
KPH
gust
KPH
rain 1hr
cm
rain 24hr
cm
rain mn
cm
humidity
%
barometer
mb
20260502185903 30 99 3.2 11.3 0.00 0.00 0.00 18 1014.0
20260502185403 30 112 3.2 14.5 0.00 0.00 0.00 19 1014.0
20260502184902 30 108 4.8 14.5 0.00 0.00 0.00 17 1014.1
20260502184403 30 91 4.8 14.5 0.00 0.00 0.00 17 1014.1
20260502183902 30 147 4.8 14.5 0.00 0.00 0.00 20 1014.3
20260502182902 29 87 4.8 14.5 0.00 0.00 0.00 24 1014.4
20260502182402 28 180 3.2 14.5 0.00 0.00 0.00 24 1014.5
20260502181902 29 112 3.2 14.5 0.00 0.00 0.00 22 1014.6
20260502181402 29 131 4.8 16.1 0.00 0.00 0.00 22 1014.6
20260502180403 29 213 3.2 16.1 0.00 0.00 0.00 24 1014.8
20260502170403 27 175 6.4 19.3 0.00 0.00 0.00 28 1015.2
20260502163902 26 156 4.8 20.9 0.00 0.00 0.00 28 1015.0
20260502163402 26 165 6.4 19.3 0.00 0.00 0.00 28 1014.9
20260502162403 26 217 6.4 19.3 0.00 0.00 0.00 29 1014.8
20260502161903 26 104 8.0 22.5 0.00 0.00 0.00 28 1014.8
20260502160903 26 125 8.0 20.9 0.00 0.00 0.00 29 1014.8
20260502151902 23 16 1.6 8.0 0.00 0.00 0.00 32 1014.6
20260502151402 23 40 1.6 8.0 0.00 0.00 0.00 33 1014.6
20260502150903 23 40 3.2 8.0 0.00 0.00 0.00 33 1014.5
20260502150403 23 38 3.2 4.8 0.00 0.00 0.00 34 1014.6
20260502123403 16 115 0.0 3.2 0.00 0.00 0.00 36 1013.1
20260502122902 16 116 0.0 3.2 0.00 0.00 0.00 35 1013.1
20260502121903 16 100 0.0 4.8 0.00 0.00 0.00 35 1012.9
20260502121402 16 69 0.0 4.8 0.00 0.00 0.00 35 1012.9
20260502120903 16 110 1.6 3.2 0.00 0.00 0.00 35 1012.8
20260502120402 16 112 0.0 3.2 0.00 0.00 0.00 35 1012.8
20260502115902 16 109 0.0 1.6 0.00 0.00 0.00 34 1012.8
20260502115403 16 113 0.0 0.0 0.00 0.00 0.00 34 1012.8
20260502114902 16 109 0.0 3.2 0.00 0.00 0.00 33 1012.8
20260502114403 17 109 0.0 3.2 0.00 0.00 0.00 33 1012.8
20260502112903 17 87 0.0 3.2 0.00 0.00 0.00 32 1012.8
20260502112402 17 136 0.0 3.2 0.00 0.00 0.00 33 1012.8
20260502111902 17 86 0.0 3.2 0.00 0.00 0.00 34 1012.8
20260502111403 17 79 0.0 3.2 0.00 0.00 0.00 34 1012.7
20260502110902 17 89 0.0 3.2 0.00 0.00 0.00 33 1012.7
20260502110403 17 90 0.0 4.8 0.00 0.00 0.00 32 1012.7
20260502105903 17 117 0.0 4.8 0.00 0.00 0.00 32 1012.8
20260502105402 17 112 3.2 4.8 0.00 0.00 0.00 32 1012.7
20260502104402 17 99 1.6 4.8 0.00 0.00 0.00 32 1012.8
20260502103902 17 112 1.6 3.2 0.00 0.00 0.00 32 1012.7
20260502103402 17 182 0.0 1.6 0.00 0.00 0.00 32 1012.7
20260502102902 17 159 0.0 1.6 0.00 0.00 0.00 32 1012.6
20260502102403 17 111 0.0 1.6 0.00 0.00 0.00 32 1012.5
20260502101902 17 103 0.0 1.6 0.00 0.00 0.00 32 1012.4
20260502101402 17 103 0.0 1.6 0.00 0.00 0.00 32 1012.4
20260502100902 17 102 0.0 4.8 0.00 0.00 0.00 31 1012.4
20260502100402 17 103 1.6 4.8 0.00 0.00 0.00 31 1012.5
20260502091402 17 91 0.0 4.8 0.00 0.00 0.00 32 1012.3
20260502090903 17 55 1.6 4.8 0.00 0.00 0.00 32 1012.3
20260502090402 18 68 0.0 4.8 0.00 0.00 0.00 32 1012.3
20260502071403 20 55 0.0 3.2 0.00 0.00 0.00 29 1012.6
20260502070903 20 55 0.0 3.2 0.00 0.00 0.00 29 1012.5
20260502070403 20 55 0.0 3.2 0.00 0.00 0.00 29 1012.5
20260502065903 20 55 0.0 3.2 0.00 0.00 0.00 29 1012.5
20260502065402 20 42 1.6 4.8 0.00 0.00 0.00 29 1012.5
20260502064403 20 34 1.6 4.8 0.00 0.00 0.00 27 1012.5
20260502063902 20 45 1.6 4.8 0.00 0.00 0.00 28 1012.6
20260502063402 20 36 0.0 3.2 0.00 0.00 0.00 29 1012.5
20260502062902 20 36 0.0 3.2 0.00 0.00 0.00 28 1012.4
20260502062403 21 34 1.6 4.8 0.00 0.00 0.00 28 1012.4
20260502061903 21 42 1.6 4.8 0.00 0.00 0.00 28 1012.3
20260502061402 21 38 1.6 4.8 0.00 0.00 0.00 28 1012.3
20260502060902 21 37 1.6 4.8 0.00 0.00 0.00 28 1012.2
20260502060402 21 50 1.6 4.8 0.00 0.00 0.00 28 1012.3
20260502055902 21 32 1.6 4.8 0.00 0.00 0.00 28 1012.2
20260502055402 21 24 1.6 4.8 0.00 0.00 0.00 28 1012.2
20260502054903 21 38 1.6 3.2 0.00 0.00 0.00 28 1012.2
20260502054403 21 40 0.0 3.2 0.00 0.00 0.00 28 1012.2
20260502053903 21 54 0.0 3.2 0.00 0.00 0.00 28 1012.2
20260502053403 21 51 0.0 3.2 0.00 0.00 0.00 28 1012.1
20260502052902 21 38 1.6 3.2 0.00 0.00 0.00 28 1012.2
20260502052402 21 39 0.0 3.2 0.00 0.00 0.00 28 1012.1
20260502051903 21 47 1.6 3.2 0.00 0.00 0.00 29 1012.1
20260502051403 21 56 0.0 3.2 0.00 0.00 0.00 29 1012.0
20260502050903 21 55 0.0 3.2 0.00 0.00 0.00 31 1011.9
20260502050403 21 53 1.6 3.2 0.00 0.00 0.00 31 1012.0
20260502045903 21 31 0.0 1.6 0.00 0.00 0.00 30 1012.0
20260502044403 23 350 0.0 1.6 0.00 0.00 0.00 24 1011.8
20260502043902 23 349 0.0 1.6 0.00 0.00 0.00 23 1011.8
20260502042902 23 348 0.0 1.6 0.00 0.00 0.00 23 1011.7
20260502042402 23 351 0.0 3.2 0.00 0.00 0.00 23 1011.7
20260502041903 23 351 0.0 3.2 0.00 0.00 0.00 23 1011.6
20260502041403 23 351 0.0 3.2 0.00 0.00 0.00 23 1011.6
20260502040402 24 324 0.0 3.2 0.00 0.00 0.00 23 1011.4
20260502035904 24 355 0.0 3.2 0.00 0.00 0.00 23 1011.4
20260502035403 24 355 1.6 3.2 0.00 0.00 0.00 22 1011.3
20260502034903 25 332 0.0 4.8 0.00 0.00 0.00 22 1011.2
20260502034403 25 358 0.0 4.8 0.00 0.00 0.00 22 1011.1
20260502033902 25 336 1.6 4.8 0.00 0.00 0.00 22 1011.1
20260502032402 25 340 1.6 4.8 0.00 0.00 0.00 22 1010.8
20260502031403 25 349 0.0 4.8 0.00 0.00 0.00 22 1010.7
20260502030903 25 1 1.6 4.8 0.00 0.00 0.00 21 1010.5
20260502030403 26 0 1.6 4.8 0.00 0.00 0.00 21 1010.5
20260502025402 26 346 1.6 4.8 0.00 0.00 0.00 21 1010.3
20260502024903 26 356 1.6 4.8 0.00 0.00 0.00 21 1010.3
20260502024403 26 345 1.6 4.8 0.00 0.00 0.00 20 1010.1
20260502023902 26 347 1.6 4.8 0.00 0.00 0.00 20 1010.1
20260502023403 26 279 3.2 4.8 0.00 0.00 0.00 20 1010.1
20260502022903 26 313 1.6 4.8 0.00 0.00 0.00 20 1010.1
20260502021902 27 335 1.6 4.8 0.00 0.00 0.00 19 1009.9
20260502021403 27 327 1.6 4.8 0.00 0.00 0.00 19 1009.8
20260502015902 27 296 3.2 8.0 0.00 0.00 0.00 19 1009.6
20260502015402 27 330 3.2 8.0 0.00 0.00 0.00 19 1009.6
20260502014904 28 348 1.6 8.0 0.00 0.00 0.00 19 1009.5
20260502014403 28 264 1.6 4.8 0.00 0.00 0.00 18 1009.5
20260502013403 28 203 1.6 4.8 0.00 0.00 0.00 18 1009.5
20260502012903 28 70 3.2 8.0 0.00 0.00 0.00 18 1009.4
20260502012403 28 174 3.2 12.9 0.00 0.00 0.00 18 1009.4
20260502011903 28 258 4.8 12.9 0.00 0.00 0.00 18 1009.4
20260502011403 28 306 3.2 8.0 0.00 0.00 0.00 18 1009.4
20260502010902 28 203 1.6 8.0 0.00 0.00 0.00 18 1009.4
20260502010403 28 261 3.2 12.9 0.00 0.00 0.00 17 1009.3
20260502005904 28 245 3.2 12.9 0.00 0.00 0.00 17 1009.3
20260502005403 28 187 3.2 9.7 0.00 0.00 0.00 17 1009.2
20260502004902 29 305 1.6 9.7 0.00 0.00 0.00 17 1009.2
20260502004403 29 211 1.6 12.9 0.00 0.00 0.00 17 1009.2
20260502003902 29 142 3.2 12.9 0.00 0.00 0.00 17 1009.2
20260502002902 29 274 3.2 11.3 0.00 0.00 0.00 16 1009.3
20260502002403 29 356 3.2 12.9 0.00 0.00 0.00 16 1009.3
20260502001903 30 206 4.8 14.5 0.00 0.00 0.00 16 1009.4
20260502001402 30 221 8.0 14.5 0.00 0.00 0.00 16 1009.3
20260502000902 30 297 1.6 8.0 0.00 0.00 0.00 17 1009.3
20260502000403 30 233 1.6 11.3 0.00 0.00 0.00 17 1009.4
20260501235903 30 203 4.8 11.3 0.00 0.00 0.00 16 1009.3
20260501235402 29 225 3.2 9.7 0.00 0.00 0.00 16 1009.4
20260501233902 30 239 8.0 22.5 0.00 0.00 0.00 15 1009.4
20260501233403 30 231 8.0 20.9 0.00 0.00 0.00 16 1009.4
20260501232903 30 234 4.8 16.1 0.00 0.00 0.00 17 1009.4
20260501232403 30 4 3.2 16.1 0.00 0.00 0.00 16 1009.4
20260501231902 31 207 3.2 16.1 0.00 0.00 0.00 16 1009.4
20260501231403 31 220 4.8 19.3 0.00 0.00 0.00 16 1009.4
20260501230902 30 333 3.2 19.3 0.00 0.00 0.00 18 1009.4
20260501230403 30 239 3.2 9.7 0.00 0.00 0.00 18 1009.4
20260501225903 30 311 3.2 14.5 0.00 0.00 0.00 17 1009.6
20260501225402 30 214 4.8 14.5 0.00 0.00 0.00 17 1009.6
20260501224902 30 230 4.8 12.9 0.00 0.00 0.00 17 1009.5
20260501224403 31 278 3.2 16.1 0.00 0.00 0.00 17 1009.6
20260501223402 31 297 6.4 14.5 0.00 0.00 0.00 17 1009.7
20260501222903 30 279 3.2 11.3 0.00 0.00 0.00 18 1009.8
20260501221902 30 215 4.8 9.7 0.00 0.00 0.00 18 1010.0
20260501221403 30 241 3.2 8.0 0.00 0.00 0.00 18 1010.0
20260501220903 30 141 1.6 4.8 0.00 0.00 0.00 18 1010.1
20260501220402 30 206 3.2 12.9 0.00 0.00 0.00 18 1010.3
20260501215902 31 176 4.8 12.9 0.00 0.00 0.00 18 1010.3
20260501215403 30 331 3.2 12.9 0.00 0.00 0.00 18 1010.3
20260501214902 30 229 1.6 8.0 0.00 0.00 0.00 20 1010.4
20260501214402 29 101 3.2 9.7 0.00 0.00 0.00 19 1010.4
20260501213903 31 240 3.2 9.7 0.00 0.00 0.00 18 1010.5
20260501213402 30 239 4.8 16.1 0.00 0.00 0.00 18 1010.7
20260501212902 30 245 3.2 16.1 0.00 0.00 0.00 17 1010.7
20260501212403 30 229 4.8 16.1 0.00 0.00 0.00 18 1010.7
20260501211902 30 253 3.2 14.5 0.00 0.00 0.00 18 1010.8
20260501211402 30 25 3.2 11.3 0.00 0.00 0.00 18 1010.9
20260501210902 30 324 3.2 11.3 0.00 0.00 0.00 19 1011.0
20260501210402 29 92 1.6 12.9 0.00 0.00 0.00 20 1011.1
20260501205903 30 187 4.8 12.9 0.00 0.00 0.00 18 1011.2
20260501204903 30 1 3.2 14.5 0.00 0.00 0.00 18 1011.3
20260501204402 30 36 4.8 14.5 0.00 0.00 0.00 19 1011.3
20260501203903 29 315 3.2 14.5 0.00 0.00 0.00 20 1011.4
20260501203402 28 219 1.6 11.3 0.00 0.00 0.00 18 1011.4
20260501202902 29 225 6.4 12.9 0.00 0.00 0.00 20 1011.5
20260501202403 28 285 1.6 12.9 0.00 0.00 0.00 19 1011.5
20260501201902 30 229 3.2 9.7 0.00 0.00 0.00 18 1011.6
20260501200403 28 245 3.2 8.0 0.00 0.00 0.00 19 1011.6
20260501195903 28 229 1.6 4.8 0.00 0.00 0.00 20 1011.6
20260501195403 28 249 0.0 8.0 0.00 0.00 0.00 20 1011.7
20260501194903 29 204 3.2 9.7 0.00 0.00 0.00 20 1011.8
20260501194403 29 335 4.8 11.3 0.00 0.00 0.00 19 1011.8
20260501193403 28 236 3.2 11.3 0.00 0.00 0.00 20 1011.9
20260501192902 27 217 3.2 11.3 0.00 0.00 0.00 22 1012.0
20260501192403 28 230 4.8 11.3 0.00 0.00 0.00 21 1012.1
20260501191903 28 295 3.2 9.7 0.00 0.00 0.00 21 1012.1